#timestamp,LO_Frequency,Hit,StdDev 
1594281615.8,286046999.0,N
1594281635.7,286046999.1,N
1594281655.5,286046999.6,N
1594281675.3,286046997.6,N
1594281695.2,286046997.1,N
1594281715.0,286046995.3,N
1594281715.9,286046995.3,N
1594281735.8,286046992.7,N
1594281755.6,286046988.6,Y
1594281775.4,286046996.1,P
1594281795.3,286046992.2,P
1594281815.1,286046991.1,P
1594281835.9,286046990.1,Y
1594281855.7,286047002.4,P
1594281875.5,286047000.1,N
1594281895.4,286047001.2,N
1594281915.2,286046993.9,N
1594281935.0,286046989.7,N
1594281935.9,286046989.7,N
1594281955.8,286046987.4,N
1594281975.6,286046989.8,N
1594281995.5,286046988.1,N
1594282015.3,286046985.7,N
1594282035.1,286046985.8,N
1594282055.9,286046987.1,N
1594282075.7,286046992.8,N
1594282095.5,286046990.5,N
1594282115.4,286046989.7,N
1594282135.2,286046989.7,N
1594282155.1,286046985.3,N
1594282156.0,286046985.3,N
1594282175.8,286046990.0,N
1594282195.6,286046988.0,N
1594282215.7,286046986.6,N
1594282235.5,286046980.1,Y
1594282255.4,286046987.4,P
1594282275.2,286046987.6,P
1594282295.0,286046986.6,P
1594282295.9,286046986.6,Y
1594282315.8,286046997.2,P
1594282335.6,286046999.5,N
1594282355.5,286046997.6,N
1594282375.3,286046998.0,N
1594282395.1,286046998.5,N
1594282415.9,286047000.2,N
1594282435.7,286046999.4,N
1594282455.6,286046997.0,N
1594282475.4,286046997.5,N
1594282495.2,286046995.2,N
1594282515.1,286046997.6,N
1594282516.0,286046997.6,N
1594282535.8,286046999.3,N
1594282555.6,286046997.1,N
1594282575.5,286046993.7,N
1594282595.3,286046996.3,N
1594282615.2,286046994.5,N
1594282635.0,286046992.7,N
1594282635.9,286046992.7,N
1594282655.7,286046991.4,Y
1594282675.6,286046998.8,P
1594282695.4,286046995.8,P
1594282715.3,286046993.2,P
1594282735.1,286046987.6,Y
1594282736.0,286046987.6,P
1594282755.8,286046991.8,N
1594282775.7,286046991.8,N
1594282795.5,286046993.7,N
1594282815.3,286046997.8,N
1594282835.2,286046997.5,N
1594282855.0,286046998.0,N
1594282855.9,286046998.0,N
1594282875.8,286047000.0,N
1594282895.6,286047001.1,N
1594282915.4,286046998.2,N
1594282935.3,286046997.5,N
1594282955.1,286046995.9,N
1594282975.8,286046998.0,N
1594282995.7,286046999.6,N
1594283015.5,286046997.4,N
1594283035.4,286046992.7,N
1594283055.2,286046988.5,Y
1594283075.0,286046992.6,P
1594283075.9,286046992.6,P
1594283095.8,286046993.1,P
1594283115.6,286046992.0,Y
1594283135.5,286046998.0,P
1594283155.3,286046995.0,N
1594283175.1,286046995.1,N
1594283195.9,286047001.0,N
1594283215.7,286046998.2,N
1594283235.6,286046999.0,N
1594283255.4,286046995.6,N
1594283275.2,286046995.0,N
1594283295.1,286046996.5,N
1594283296.0,286046996.5,N
1594283315.8,286046998.7,N
1594283335.6,286046996.8,N
1594283355.5,286046998.4,N
1594283375.3,286046997.9,N
1594283395.2,286046997.1,N
1594283415.9,286046998.7,N
1594283435.7,286047000.7,N
1594283455.6,286046995.4,N
1594283475.4,286046993.2,Y
1594283495.2,286046996.3,P
1594283515.1,286046991.8,P
1594283516.0,286046991.8,P
1594283535.8,286046992.6,N
1594283555.7,286046991.4,Y
1594283575.5,286046995.7,P
1594283595.3,286046998.4,N
1594283615.2,286047004.0,N
1594283635.0,286047003.6,N
1594283635.9,286047003.6,N
1594283655.7,286047000.9,N
1594283675.6,286046997.3,N
1594283695.4,286046995.2,N
1594283715.3,286046996.1,N
1594283735.1,286046993.9,N
1594283736.0,286046993.9,N
1594283755.8,286046990.5,N
1594283775.7,286046989.0,N
1594283795.5,286046990.4,N
1594283815.3,286046994.7,N
1594283835.2,286046990.2,N
1594283855.0,286046991.0,N
1594283855.9,286046991.0,N
1594283875.8,286046992.0,N
1594283895.6,286046996.7,N
1594283915.4,286046995.5,N
1594283935.3,286046994.5,N
1594283955.1,286046990.9,N
1594283975.8,286046987.7,N
1594283995.8,286046984.8,Y
1594284015.6,286046985.5,P
1594284035.4,286046985.8,P
1594284055.3,286046986.3,P
1594284075.1,286046982.6,Y
1594284095.8,286046993.6,P
1594284115.7,286046991.8,N
1594284135.5,286046996.0,N
1594284155.4,286046996.3,N
1594284175.2,286046991.8,N
1594284195.1,286046992.5,N
1594284196.0,286046992.5,N
1594284215.8,286046996.3,N
1594284235.6,286046994.4,N
1594284255.5,286046993.2,N
1594284275.3,286046993.5,N
1594284295.1,286046997.7,N
1594284315.9,286046995.7,N
1594284335.7,286046998.5,N
1594284355.6,286046998.5,N
1594284375.4,286046997.7,N
1594284395.2,286046993.8,N
1594284415.1,286046993.4,N
1594284416.0,286046993.4,N
1594284435.8,286046995.2,N
1594284485.7,286046994.5,E
1594284495.6,286046994.3,N
1594284515.4,286046994.0,P
1594284535.3,286046995.6,P
1594284555.1,286046996.8,Y
1594284575.8,286047002.6,P
1594284595.7,286046998.4,N
1594284615.5,286046998.7,N
1594284635.4,286046996.4,N
1594284655.2,286046998.6,N
1594284675.0,286046999.0,N
1594284675.9,286046999.0,N
1594284695.8,286046997.9,N
1594284715.6,286046994.7,N
1594284735.5,286046992.3,Y
1594284755.3,286046994.5,P
1594284775.1,286046990.2,P
1594284795.9,286046991.6,N
1594284815.7,286046985.3,Y
1594284835.6,286046988.9,P
1594284855.4,286046988.3,P
1594284875.2,286046986.5,P
1594284895.1,286046985.6,Y
1594284896.0,286046985.6,P
1594284915.8,286046995.1,N
1594284935.7,286046998.9,N
1594284955.5,286047005.7,N
1594284975.3,286047008.7,N
1594284995.2,286047008.9,N
1594285015.0,286047009.3,N
1594285015.9,286047009.3,N
1594285035.7,286047015.6,N
1594285055.6,286047014.6,N
1594285075.4,286047019.3,N
1594285095.3,286047023.3,N
1594285115.1,286047021.4,N
1594285116.0,286047021.4,N
1594285135.8,286047018.3,N
1594285155.7,286047013.2,N
1594285175.5,286047009.6,N
1594285195.3,286047006.5,N
